Location: Pradons
(44.4746°N, 4.3578°E)
Time: 16:04:01
(UTC+00:00)

STARLINK-1219 - Pass Details

Date: 09 April 2020
Orbit: 548 x 551 km, 53.0° (Epoch: 28 May)

Event Time Altitude Azimuth Distance (km) Brightness Sun altitude
Rises 20:10:09 0° 300° (WNW) 2,711 8.8 -18.9°
Reaches altitude 10° 20:12:27 10° 293° (WNW) 1,815 7.5 -19.2°
Maximum altitude 20:16:20 41° 223° (SW) 794 4.4 -19.8°
Enters shadow 20:17:20 35° 186° (S) 897 4.4 -19.9°
